星链-33969 (STARLINK-33969)

导读

STARLINK-33969是美国SpaceX星链星座的一颗卫星,于2025年5月7日发射升空,隶属于低轨卫星互联网星座系统。星链系统旨在为全球提供高速低延迟宽带网络服务,覆盖偏远及网络基础设施匮乏地区,该卫星入轨后将与其他星链卫星组网,进一步拓展星座服务覆盖范围与容量。

基本信息
目录编号:
63855
目录名称:
STARLINK-33969
国际标识:
2025-093V
轨道中心:
EARTH
卫星名称:
星链-33969
卫星全名:
星链-33969 (STARLINK-33969)
卫星状态:
在轨 (已飞行492 天)
发射日期:
2025-05-07 UTC
国别 :
美国 (US)
星等 :
--
该卫星已列入 空间交会检测服务 Space Conjunction Data Service (SCDS) ,当前飞行风险评估等级: 高风险
轨道信息
数据来源 国际轨道数据
星历时间: 2026-09-11T07:59:51+0800
15小时前
查看轨道信息
半长轴: 6861.144km
偏心率: 0.0001542
轨道倾角: 43.003°
近地点辐角 277.053°
升交点赤经 111.290°
平近点角 83.015°
近地点: 481.949km
远地点: 484.065km
周期: 94.266分钟
每日圈数: 15.275943
详细信息
固有亮度:
5
最大亮度:
2.5
卫星平台:
Starlink V1.0
覆盖范围:
全球
运营商:
太空探索技术公司
运营商所在国:
美国
制造商(研发单位):
太空探索技术公司
制造商所在国:
美国
使用方式:
暂无
卫星简介
Starlink 计划是 SpaceX 推出的全球卫星互联网项目,通过发射低轨道卫星,为全球尤其是偏远地区提供高速、低延迟的互联网服务。自 2019 年起,Starlink 已部署数千颗卫星,旨在缩小全球数字鸿沟,推动互联网普及。该项目还为军事、航空等行业提供通信支持,带来广泛经济效益。
2D轨道图
3D轨道图
轨道高度分析图
轨道倾角分析图
轨道综合分析图
查看轨道综合分析图
交会数据列表
事件ID 空间交会对象 最接近时刻(TCA) 交会距离 交会风险概率(CRP) 交会风险指数(CRI) 操作
CDM_260912-014006-385506-396921
2026-09-12T
01:40:18+0000
0.471 km
远距离
1.623001E-4 高风险 0.79
CDM_260912-092306-340706-385521
2026-09-12T
09:23:24+0000
0.487 km
远距离
7.945174E-5 中风险 0.73
CDM_260911-104506-385506-396922
2026-09-11T
10:45:52+0000
0.627 km
远距离
7.722248E-5 中风险 0.73
CDM_260912-205906-365306-385521
2026-09-12T
20:59:22+0000
0.668 km
远距离
5.459125E-5 中风险 0.7
CDM_260912-090106-192306-385521
2026-09-12T
09:01:58+0000
1.022 km
极远距离
1.925764E-5 中风险 0.61
CDM_260912-104706-365306-385521
2026-09-12T
10:47:23+0000
1.001 km
极远距离
1.45766E-5 中风险 0.58
CDM_260912-103606-192306-385521
2026-09-12T
10:36:07+0000
1.223 km
极远距离
1.030498E-5 中风险 0.55
CDM_260912-091306-365306-385521
2026-09-12T
09:13:14+0000
1.164 km
极远距离
8.652609E-6 低风险 0.54
CDM_260913-203405-960406-385521
2026-09-13T
20:34:46+0000
1.090 km
极远距离
7.889224E-6 低风险 0.53
CDM_260903-233503-825706-385523
2026-09-03T
23:35:00+0000
1.486 km
极远距离
6.413955E-6 低风险 0.51
与全量物体交会距离演化趋势
与全量物体交会风险概率演化趋势